Погода в Вадзиме

Япония     37°22′41″N   136°48′41″E
темп.,
°C
ветер,
м/с
пор.,
м/с
влажн.,
%
обл.,
%
осадки,
мм/ч
давл.,
гПа
погр.,
м
20 января, чт
чт2000:00+2св5597100 3.1 1015437
03:00+2ссв9998100 7.7 1014781
06:00+3с121279100 2.2 10131456
09:00+3с111275100 3.4 10161307
12:00+4с121263100 1.1 10171889
15:00+3ссз131264100 2.3 10181843
18:00+3ссз131264100 0.6 10201789
21:00+3ссз101055100 1.1 10222191
21 января, пт
пт2100:00+2сз111166100 0.7 10221911
03:00+2сз121278100 1.1 10231866
06:00+1сз121375100 0.1 10242128
09:00+1сз111281100 0.6 10261753
12:00+1ссз9969100 0.9 10261624
15:00+2ссз7658100 1.3 10261529
18:00+3с5456100 0.1 10271397
21:00+3ссз335399 0.1 10281264
22 января, сб
сб2200:00+3зсз3352100 0.1 10271299
03:00+4з5553100 0.1 10271456
06:00+4з6555100 0.1 10271401
09:00+4зсз5555100 0.1 10281453
12:00+5зсз5556100 0.1 10281358
15:00+5зсз4454100 0.1 10271350
18:00+5сз3354100 0.1 10271259
21:00+5ссз2252100 0.1 10271228
23 января, вс
вс2300:00+5сз115391 0.0 10261115
03:00+5сз1155100 0.0 10251033
06:00+5вюв1156100 0.0 1024949
09:00+5ююв2158100 0.0 1024809
12:00+5ююз336231 0.0 1022690
15:00+6юз55637 0.0 1021929
18:00+7юз776795 0.0 10201207
21:00+5сз101192100 1.3 1021860
24 января, пн
пн2400:00+6сз91068100 0.3 10221299
03:00+5ссз776192 0.3 10221286
06:00+5с555999 0.0 10221216
09:00+5ссв445986 0.0 10231165
12:00+5св555965 0.0 10221083
15:00+6св55615 0.0 1021988
18:00+6св66635 0.0 1021992
21:00+6всв66647 0.0 1020994